Change the Weather History Date:

Monday, November 18, 2013

  Actual Average Record
Temperature  
Mean Temperature 57 °F -  
Max Temperature 68 °F 59 °F 78 °F (2007)
Min Temperature 46 °F 38 °F 21 °F (2014)
Degree Days  
Heating Degree Days 8    
Growing Degree Days 7 (Base 50)    
Moisture  
Dew Point 33 °F    
Average Humidity 43    
Maximum Humidity 59    
Minimum Humidity 28    
Precipitation  
Precipitation 0.00 in - - ()
Sea Level Pressure  
Sea Level Pressure 30.17 in    
Wind  
Wind Speed 3 mph (SE)    
Max Wind Speed 7 mph    
Max Gust Speed -    
Visibility 10 miles    
Events      
Averages and records for this station are not official NWS values.
T = Trace of Precipitation, MM = Missing Value Source: NWS Daily Summary

Daily Weather History Graph

Daily Weather History Graph

Search for Another Location

Airport or City:

Trip Planner

Search our weather history database for the weather conditions in past years. The results will help you decide how hot, cold, wet, or windy it might be!

Date:

Astronomy

Nov. 18, 2013 Rise Set
Actual Time 6:39 AM MST 5:05 PM MST
Civil Twilight 6:13 AM MST 5:31 PM MST
Nautical Twilight 5:43 AM MST 6:01 PM MST
Astronomical Twilight 5:14 AM MST 6:30 PM MST
Moon 6:11 PM MST (11/18) 7:30 AM MST (11/18)
Length of Visible Light 11h 18m
Length of Day
10h 25m
Full, 99% of the Moon is Illuminated
Nov 18
Full
Nov 25
Last Quarter
Dec 2
New
Dec 9
First Quarter
Dec 17
Full

Hourly Weather History & Observations

Time (MST) Temp. Windchill Dew Point Humidity Pressure Visibility Wind Dir Wind Speed Gust Speed Precip Events Conditions
12:15 AM 52.0 °F - 30.6 °F 44% 30.15 in 10.0 mi West 3.5 mph - N/A   Clear
12:35 AM 50.9 °F - 30.6 °F 46% 30.16 in 10.0 mi NW 4.6 mph - N/A   Clear
12:55 AM 50.2 °F - 30.7 °F 47% 30.16 in 10.0 mi NW 5.8 mph - N/A   Clear
1:15 AM 50.0 °F - 31.6 °F 49% 30.15 in 10.0 mi NNW 5.8 mph - N/A   Clear
1:35 AM 50.5 °F - 31.8 °F 49% 30.16 in 10.0 mi North 4.6 mph - N/A   Clear
1:55 AM 50.2 °F - 31.8 °F 49% 30.16 in 10.0 mi North 3.5 mph - N/A   Clear
2:15 AM 49.8 °F - 32.0 °F 50% 30.15 in 10.0 mi Calm Calm - N/A   Clear
2:35 AM 49.1 °F - 32.0 °F 52% 30.15 in 10.0 mi Calm Calm - N/A   Clear
2:55 AM 49.1 °F - 32.0 °F 52% 30.15 in 10.0 mi Calm Calm - N/A   Clear
3:15 AM 49.3 °F - 32.0 °F 51% 30.15 in 10.0 mi Calm Calm - N/A   Clear
3:35 AM 49.3 °F - 32.0 °F 51% 30.15 in 10.0 mi WNW 3.5 mph - N/A   Clear
3:55 AM 49.6 °F - 31.8 °F 50% 30.16 in 10.0 mi WNW 4.6 mph - N/A   Clear
4:15 AM 49.3 °F - 31.8 °F 51% 30.15 in 10.0 mi NW 4.6 mph - N/A   Clear
4:35 AM 49.5 °F - 32.0 °F 51% 30.16 in 10.0 mi NW 3.5 mph - N/A   Clear
4:55 AM 49.3 °F - 32.0 °F 51% 30.17 in 10.0 mi Calm Calm - N/A   Clear
5:15 AM 48.2 °F - 32.0 °F 54% 30.18 in 10.0 mi Calm Calm - N/A   Clear
5:35 AM 47.5 °F - 32.0 °F 55% 30.18 in 10.0 mi WNW 5.8 mph - N/A   Clear
5:55 AM 48.4 °F - 32.4 °F 54% 30.19 in 10.0 mi Calm Calm - N/A   Clear
6:15 AM 47.3 °F - 32.4 °F 56% 30.19 in 10.0 mi NW 3.5 mph - N/A   Clear
6:35 AM 47.1 °F - 32.9 °F 58% 30.19 in 10.0 mi North 3.5 mph - N/A   Clear
6:55 AM 46.4 °F 45.2 °F 32.5 °F 59% 30.20 in 10.0 mi NNW 3.5 mph - N/A   Clear
7:15 AM 46.6 °F - 32.4 °F 58% 30.21 in 10.0 mi NNW 4.6 mph - N/A   Clear
7:35 AM 51.8 °F - 32.9 °F 49% 30.21 in 10.0 mi Calm Calm - N/A   Clear
7:55 AM 51.6 °F - 32.5 °F 48% 30.22 in 10.0 mi Calm Calm - N/A   Clear
8:15 AM 52.3 °F - 33.4 °F 49% 30.22 in 10.0 mi North 3.5 mph - N/A   Clear
8:35 AM 54.5 °F - 33.4 °F 45% 30.21 in 10.0 mi ENE 3.5 mph - N/A   Clear
8:55 AM 57.6 °F - 33.4 °F 40% 30.23 in 10.0 mi NE 3.5 mph - N/A   Clear
9:15 AM 56.7 °F - 34.0 °F 42% 30.23 in 10.0 mi Calm Calm - N/A   Clear
9:35 AM 58.5 °F - 32.7 °F 38% 30.24 in 10.0 mi NW 5.8 mph - N/A   Clear
9:55 AM 58.6 °F - 31.6 °F 36% 30.24 in 10.0 mi NNW 6.9 mph - N/A   Clear
10:15 AM 59.4 °F - 32.0 °F 36% 30.23 in 10.0 mi NNW 4.6 mph - N/A   Clear
10:35 AM 60.3 °F - 32.0 °F 34% 30.23 in 10.0 mi North 3.5 mph - N/A   Clear
10:55 AM 61.7 °F - 32.2 °F 33% 30.23 in 10.0 mi Calm Calm - N/A   Clear
11:15 AM 61.7 °F - 32.7 °F 34% 30.22 in 10.0 mi ESE 3.5 mph - N/A   Clear
11:35 AM 62.4 °F - 32.5 °F 33% 30.21 in 10.0 mi East 3.5 mph - N/A   Clear
11:55 AM 63.1 °F - 32.4 °F 32% 30.20 in 10.0 mi Calm Calm - N/A   Scattered Clouds
12:15 PM 64.0 °F - 32.0 °F 30% 30.19 in 10.0 mi Calm Calm - N/A   Clear
12:35 PM 65.1 °F - 32.2 °F 29% 30.18 in 10.0 mi South 3.5 mph - N/A   Clear
12:55 PM 64.9 °F - 32.4 °F 30% 30.17 in 10.0 mi ESE 3.5 mph - N/A   Clear
1:15 PM 66.4 °F - 32.9 °F 29% 30.16 in 10.0 mi Calm Calm - N/A   Clear
1:35 PM 67.6 °F - 33.3 °F 28% 30.16 in 10.0 mi SSW 4.6 mph - N/A   Clear
1:55 PM 66.9 °F - 33.3 °F 29% 30.15 in 10.0 mi Calm Calm - N/A   Clear
2:15 PM 66.7 °F - 33.8 °F 29% 30.14 in 10.0 mi Calm Calm - N/A   Clear
2:35 PM 67.5 °F - 34.0 °F 29% 30.13 in 10.0 mi SSE 4.6 mph - N/A   Clear
2:55 PM 67.8 °F - 34.3 °F 29% 30.13 in 10.0 mi Calm Calm - N/A   Clear
3:15 PM 68.4 °F - 34.3 °F 28% 30.12 in 10.0 mi South 5.8 mph - N/A   Clear
3:35 PM 68.4 °F - 34.2 °F 28% 30.12 in 10.0 mi SSE 4.6 mph - N/A   Clear
3:55 PM 68.5 °F - 34.0 °F 28% 30.12 in 10.0 mi ESE 5.8 mph - N/A   Clear
4:15 PM 68.0 °F - 34.9 °F 29% 30.12 in 10.0 mi ESE 3.5 mph - N/A   Clear
4:35 PM 66.7 °F - 34.9 °F 31% 30.12 in 10.0 mi ESE 4.6 mph - N/A   Clear
4:55 PM 64.8 °F - 34.3 °F 32% 30.12 in 10.0 mi SSE 4.6 mph - N/A   Clear
5:15 PM 61.9 °F - 34.0 °F 35% 30.12 in 10.0 mi SE 4.6 mph - N/A   Clear
5:35 PM 61.0 °F - 34.7 °F 37% 30.13 in 10.0 mi SSE 4.6 mph - N/A   Clear
5:55 PM 59.0 °F - 34.7 °F 40% 30.13 in 10.0 mi SSE 5.8 mph - N/A   Clear
6:15 PM 58.6 °F - 35.1 °F 41% 30.13 in 10.0 mi SSE 5.8 mph - N/A   Clear
6:35 PM 57.9 °F - 34.9 °F 42% 30.14 in 10.0 mi SSE 5.8 mph - N/A   Clear
6:55 PM 57.4 °F - 34.0 °F 41% 30.14 in 10.0 mi SSE 5.8 mph - N/A   Clear
7:15 PM 56.8 °F - 33.8 °F 42% 30.14 in 10.0 mi SSE 6.9 mph - N/A   Clear
7:35 PM 56.8 °F - 33.8 °F 42% 30.14 in 10.0 mi SE 4.6 mph - N/A   Clear
7:55 PM 56.5 °F - 33.8 °F 42% 30.14 in 10.0 mi SSE 5.8 mph - N/A   Clear
8:15 PM 56.3 °F - 33.8 °F 43% 30.15 in 10.0 mi SE 5.8 mph - N/A   Clear
8:35 PM 55.8 °F - 33.8 °F 44% 30.15 in 10.0 mi SSE 5.8 mph - N/A   Clear
8:55 PM 55.0 °F - 33.8 °F 45% 30.15 in 10.0 mi SSE 5.8 mph - N/A   Clear
9:15 PM 55.6 °F - 34.2 °F 44% 30.15 in 10.0 mi SSE 4.6 mph - N/A   Scattered Clouds
9:35 PM 53.4 °F - 34.5 °F 49% 30.15 in 10.0 mi SE 4.6 mph - N/A   Mostly Cloudy
9:55 PM 51.1 °F - 34.2 °F 52% 30.15 in 10.0 mi Calm Calm - N/A   Overcast
10:15 PM 47.5 °F - 32.0 °F 55% 30.15 in 10.0 mi Calm Calm - N/A   Mostly Cloudy
10:35 PM 46.0 °F 44.8 °F 31.6 °F 57% 30.15 in 10.0 mi WNW 3.5 mph - N/A   Scattered Clouds
10:55 PM 46.0 °F 44.8 °F 32.0 °F 58% 30.15 in 10.0 mi West 3.5 mph - N/A   Clear
11:15 PM 46.2 °F - 32.0 °F 58% 30.15 in 10.0 mi Calm Calm - N/A   Clear
11:35 PM 46.2 °F 45.0 °F 32.5 °F 59% 30.14 in 10.0 mi NW 3.5 mph - N/A   Scattered Clouds
11:55 PM 48.4 °F - 34.2 °F 58% 30.14 in 10.0 mi Calm Calm - N/A   Mostly Cloudy